Regional Weather Roundup
Issued by NWS Wakefield, VA

Home | Current Version | Previous Version | Graphics & Text | Print | Product List | Glossary On
Versions: 1 2 3 4 5 6 7 8 9 10 11 12 13 14 15 16 17 18 19 20 21 22 23 24 25 26 27 28 29 30 31 32 33 34 35 36 37 38 39 40 41 42 43 44 45 46 47 48 49 50
000
ASUS41 KAKQ 221914
RWRAKQ

REGIONAL WEATHER ROUNDUP
NATIONAL WEATHER SERVICE WAKEFIELD VA
300 PM EDT FRI MAY 22 2015

Note: "fair" indicates few or no clouds below 12,000 feet with no
significant weather and/or obstructions to visibility. * = Denotes
station may not report precipitation (e.g., rain,snow,etc.),
thunder or fog.

VAZ042-051-052>054-056-222000-
NORTHERN VIRGINIA

CITY           SKY/WX    TMP DP  RH WIND       PRES   REMARKS
WASH NATIONAL  MOSUNNY   76  43  30 W14       30.09F
DULLES         MOSUNNY   72  43  35 W8        30.09F
FORT BELVOIR   SUNNY     74  42  31 VRB7      30.10F
QUANTICO       MOSUNNY   74  42  31 NW14      30.12F
FREDERICKSBRG* SUNNY     74  44  34 W7        30.12F
STAFFORD*      SUNNY     74  40  29 W10G16    30.16F
WARRENTON      SUNNY     74  47  38 SW8       30.11F
CULPEPER*      SUNNY     72  43  35 W6        30.12F
MANASSAS*      SUNNY     73  43  33 NW15G21   30.10F
LEESBURG*      SUNNY     73  45  35 W17G28    30.09F
WINCHESTER     SUNNY     73  32  21 W13G21    30.10S
FRONT ROYAL*   FAIR      72  41  33 NW13G20   30.10F
LURAY*         FAIR      73  45  35 SW8       30.13S
$$

VAZ048-049-060>072-079>083-222000-
CENTRAL AND SOUTH CENTRAL VIRGINIA

CITY           SKY/WX    TMP DP  RH WIND       PRES   REMARKS
RICHMOND       MOSUNNY   74  42  31 W13       30.15S
CHESTERFIELD*  NOT AVBL
PETERSBURG*    SUNNY     74  40  29 W7        30.17S
HANOVER        SUNNY     72  41  32 W12       30.16S
TAPPAHANNOCK*  SUNNY     74  34  23 W7        30.15S
QUINTON*       FAIR      71  44  36 NW10      30.15S
CHARLOTTSVILLE MOSUNNY   72  41  32 VRB5      30.14F
GORDONSVILLE*  FAIR      71  44  37 SW8       30.13F
ORANGE*        SUNNY     73  45  35 S3G16     30.15S
LOUISA*        SUNNY     73  41  31 NW8       30.14S
BUMPASS*       FAIR      71  41  33 SW6       30.15S
FARMVILLE*     SUNNY     73  39  29 SW3       30.16S
CREWE*         FAIR      72  42  34 W6        30.17S
FORT PICKETT*  FAIR      70  43  37 NW5       30.17S
CHASE CITY*    FAIR      72  44  36 CALM      30.18S
CLARKSVILLE*   FAIR      72  41  33 W8        30.18S
SOUTH HILL*    SUNNY     71  43  36 CALM      30.23S
LAWRENCEVILLE* FAIR      72  43  35 W5        30.17S
EMPORIA*       SUNNY     70  41  35 W3        30.18F
$$

VAZ088>098-222000-
SOUTHEAST VIRGINIA

CITY           SKY/WX    TMP DP  RH WIND       PRES   REMARKS
NORFOLK        SUNNY     71  43  36 S12       30.15R
VIRGINIA BEACH MOSUNNY   73  37  27 N7        30.14S
NORFOLK NAVAL  MOSUNNY   75  44  33 W8        30.17R
WEST POINT*    SUNNY     74  37  25 W10       30.16S
SALUDA*        FAIR      70  44  39 NW6       30.13S
NEWPORT NEWS   SUNNY     75  44  33 W12       30.15S
LANGLEY AFB    SUNNY     71  48  43 W10G18    30.13S
FORT EUSTIS    SUNNY     71  50  47 W8        30.14R
WILLIAMSBURG*  SUNNY     75  48  38 W12       30.16S
HR EXEC AP*    FAIR      72  46  40 N6        30.17S
FRANKLIN*      SUNNY     71  43  36 W5        30.16S
WAKEFIELD      SUNNY     72  44  36 MISG      30.16S
$$

VAZ020-022-025-037-045-222000-
WEST CENTRAL AND SOUTHWEST VIRGINIA

CITY           SKY/WX    TMP DP  RH WIND       PRES   REMARKS
STAUNTON*      MOSUNNY   72  40  31 NW6       30.17F
WAYNESBORO*    FAIR      69  39  33 NW9       30.16S
HOT SPRINGS VA CLOUDY    59  37  43 W10       30.22S
LYNCHBURG      SUNNY     71  41  33 CALM      30.19S
DANVILLE       SUNNY     73  40  30 VRB5      30.19F
SOUTH BOSTON*  FAIR      72  37  27 CALM      30.18S
MARTINSVILLE   SUNNY     73  35  24 NW7       30.22F
ROANOKE        MOSUNNY   70  41  34 NW10      30.21S
BLACKSBURG     SUNNY     63  43  47 W8        30.26F
DUBLIN*        SUNNY     65  43  43 CALM      30.26S
MARION*        SUNNY     65  41  42 W3        30.28F
HILLSVILLE*    SUNNY     62  38  39 NW9       30.25S
RICHLANDS*     FAIR      60  28  29 W5        30.28S
WISE*          SUNNY     64  37  36 NW6       30.30S
ABINGDON*      SUNNY     66  41  40 N3        30.27S
$$

MDZ021>025-VAZ099-100-222000-
SOUTHERN MARYLAND AND THE DELMARVA PENINSULA

CITY           SKY/WX    TMP DP  RH WIND       PRES   REMARKS
PATUXENT RIVER MOSUNNY   73  43  33 W14G23    30.10F
BAY BRIDGE APT   N/A    N/A N/A N/A W7G17     30.08S
LEONARDTOWN    SUNNY     70  43  37 SW13      30.12F
DOVER          SUNNY     72  48  43 W18       30.02R
GEORGETOWN     SUNNY     71  42  35 W14G24    30.07S
EASTON         SUNNY     73  46  38 NW12G23   30.12S
CAMBRIDGE      SUNNY     72  41  33 W10G17    30.09S
SALISBURY      SUNNY     72  43  35 NW12      30.08F
OCEAN CITY     SUNNY     72  45  37 W12G20    30.08R
WALLOPS ISLAND SUNNY     71  44  37 W15G21    30.11R
ACCOMACK*      SUNNY     70  50  49 W9        30.13S
$$

NCZ012>017-030>032-222000-
NORTH CENTRAL AND EASTERN NORTH CAROLINA

CITY           SKY/WX    TMP DP  RH WIND       PRES   REMARKS
ROANOKE RAPIDS FAIR      70  43  37 CALM      30.17F
RALEIGH        MOSUNNY   72  44  36 N6        30.20S
ELIZABETH CITY SUNNY     71  46  40 VRB3      30.16S
AHOSKIE*       SUNNY     69  44  39 CALM      30.17S
EDENTON*       MOSUNNY   70  47  44 NW3       30.17S
CURRITUCK*     SUNNY     70  40  33 E5        30.16S
KILL DEVIL HLS SUNNY     67  42  40 E6        30.16S
MANTEO         SUNNY     67  44  43 E6        30.18R
CAPE HATTERAS  SUNNY     68  49  50 VRB6      30.17S
TARBORO*       FAIR      73  43  34 W5        30.19S
GOLDSBORO      SUNNY     72  46  38 VRB5      30.17S
WASHINGTON     SUNNY    N/A N/A N/A CALM      30.18S
GREENVILLE     SUNNY     72  45  37 CALM      30.19S
NEW BERN       MOSUNNY   74  51  44 NW9       30.19R
WILMINGTON     PTSUNNY   71  55  56 NE8       30.17S
$$

VAZ048-222000-
ELSEWHERE

CITY           SKY/WX    TMP DP  RH WIND       PRES   REMARKS
HARRISBURG PA  PTSUNNY   72  43  35 NW25G31   30.01S
BALTIMORE      MOSUNNY   73  44  35 W13G24    30.06F
ANNAPOLIS      SUNNY     73  44  35 W13G20    30.07F
ANDREWS AFB    MOSUNNY   73  44  36 W17       30.08F
PHILADELPHIA   PTSUNNY   74  40  29 W18       30.00S
HENDERSON NC   SUNNY     70  38  31 SW3       30.19S
GREENSBORO     MOSUNNY   71  41  33 VRB7      30.20S
ROCKY MOUNT    SUNNY     72  42  34 CALM      30.18S
$$

VAZ100-222000-
MARINE

STATION/POSITION TIME  TEMP    WIND        PRES    WAVE   SWELL
                       AIR SEA DIR/SP/G            HT/PER HT/PER
                 (UTC) (F)     (DEG/KT/KT) (MB)    (FT/S) (FT/S)
BRANDYWINE LGT   1800   65 63  300/ 17/ 19 1017.6F
CAPE MAY NJ      1800   67 65  290/  9/ 13 1017.1F
LEWES DE         1800   67 63  300/ 19/ 23 1017.5F
15NM E FENWICK I 1850   63 61              1018.0R   2/ 5
OCEAN-CITY-INLET 1800   68 60  300/ 12/ 16 1018.0R
WACHAPREAGUE VA  1800   69 66  300/  5/ 11 1020.0R
THOMAS POINT MD  1900   70 65  280/ 14/ 17 1019.0F
GOOSES REEF MD   1900   69 66  280/ 12/ 19 1020.1S   2/ 3
SOLOMONS ISLAND  1800      68                N/A
BISHOPS HEAD MD  1800   66 69  290/ 12/ 15 1019.5R
PINEY POINT MD   1800          310/ 14/ 17   N/A
CAMBRIDGE MD     1800   68 69  290/  7/ 14 1018.8F
LEWISETTA VA     1800   68 69              1019.9R
RAPPAHANNOCK LGT 1800          270/  9/ 10 1020.8R
STINGRAY PT      1900   68 69  310/ 10/ 12 1020.2R   1/ 2
YORK RVR RNG VA  1800   67     260/ 12/ 13 1019.9F
YORKTOWN VA      1800   67 70  330/  8/  9 1020.4S
JAMESTOWN VA     1900   68 74  290/ 10/ 14 1020.0R
DOMINION TERM VA 1800   66     300/ 10/ 12 1021.0R
KIPTOPEKE VA     1800      72  300/  7/  9   N/A
CHES BAY BRIDGE  1800   65 66  320/  1/  3 1020.5R
CAPE HENRY VA    1800   65     290/  7/  9 1019.7R
CHESAPEAKE LGHT  1800   64     280/  9/ 10 1021.5R
WILLOUBY STN VA  1800   66     270/ 10/ 12 1021.4F
CAPE HENRY BUOY  1828      62                N/A     3/ 6
1ST LANDING BUOY 1900      68              1020.8R
CAPE CHARLES BUO 1826      65                N/A     2/ 7   2/ 7
OFFSHORE WE BUOY 1811      60                N/A     4/ 6   3/ 6
64NM E OF VA BCH 1850   61 61  280/ 10/ 12 1020.6R   5/ 7   5/ 7
DUCK PIER NC     1800   63 67   20/  9/ 10 1020.4R
44100 DUCK FRF   1824      61                N/A     4/ 7
44056 DUCK FRF   1811      65                N/A     3/ 8
OREGON INLET NC  1800   64 67   10/  9/ 12 1021.6R
HATTERAS NC      1800   64 72   10/  8/ 12 1021.1R
DIAMOND SHLS NC  1850   63 77   10/ 14/ 17 1021.6R   4/ 8   3/ 8
CAPE LOOKOUT NC  1900   67      60/ 11/ 13 1021.4S
$$


USA.gov is the U.S. government's official web portal to all federal, state and local government web resources and services.